Flag for Germany Weather past 2 weeks in Mönchengladbach, North Rhine-Westphalia, Germany

Now
61 °F

Light rain. Clear.


Feels Like: 61 °F
Forecast: 54 / 71 °F
Wind: 12 mph from Southeast

Location: Duesseldorf

Current Time: May 5, 2015 at 1:21:53 AM

Latest Report: May 5, 2015 at 12:50 AM


Visibility: N/A

Pressure: 29.50 "Hg

Humidity: 88%

Dew point: 57 °F

Location of MönchengladbachLocation

Historic Weather in Mönchengladbach — Graph

°F

Mönchengladbach temperature yesterday

Maximum temperature yesterday: 70 °F (at 5:20 PM)
Minimum temperature yesterday: 55 °F (at 4:20 AM)
Average temperature yesterday: 62 °F

Past Weeks' High & Low Weather Summary

 TemperatureHumidityPressure
High70 °F (Apr 21, 3:50 PM)100% (Apr 23, 6:20 AM)30.45 "Hg (Apr 23, 6:20 AM)
Low32 °F (Apr 28, 6:20 AM)23% (Apr 21, 3:20 PM)29.53 "Hg (May 5, 12:20 AM)
Average53 °F69%29.95 "Hg
* Reported Apr 20 12:20 AM — May 5 12:20 AM, Mönchengladbach, Weather by CustomWeather, © 2015

Note: Actual official high and low records may vary slightly from our data, if they occured in-between our weather recording intervals... More about our weather records

Advertising

Mönchengladbach weather history for previous 24 hours

 ConditionsComfort  
Time TempWeatherWind HumidityBarometerVisibility
12:20 AM
Tue, May 5
61 °FLight rain. Mostly cloudy.14 mph88%29.53 "HgN/A
11:50 PM
Mon, May 4
63 °FRain. Mostly cloudy.13 mph77%29.56 "Hg5 mi
11:20 PM63 °FLight rain. Clear.10 mph73%29.59 "HgN/A
10:50 PM64 °FLight rain. Clear.10 mph64%29.62 "HgN/A
10:20 PM64 °FLight rain. Clear.6 mph60%29.62 "HgN/A
9:50 PM66 °FSunny.5 mph56%29.65 "Hg10 mi
9:20 PM66 °FSunny.7 mph56%29.65 "Hg10 mi
8:50 PM66 °FSunny.7 mph56%29.65 "Hg10 mi
8:20 PM68 °FSunny.7 mph49%29.68 "Hg10 mi
7:50 PM68 °FSunny.8 mph49%29.68 "Hg10 mi
7:20 PM68 °FSunny.6 mph53%29.68 "Hg10 mi
6:50 PM68 °FBroken clouds.6 mph56%29.71 "HgN/A
6:20 PM68 °FPartly sunny.7 mph53%29.71 "HgN/A
5:50 PM70 °FPartly sunny.6 mph50%29.74 "HgN/A
5:20 PM70 °FScattered clouds.6 mph53%29.74 "HgN/A
4:50 PM68 °FScattered clouds.6 mph53%29.77 "HgN/A
4:20 PM68 °FPartly sunny.6 mph53%29.77 "HgN/A
3:50 PM68 °FPartly sunny.6 mph56%29.77 "HgN/A
3:20 PM68 °FBroken clouds.8 mph56%29.77 "HgN/A
2:50 PM66 °FBroken clouds.9 mph60%29.80 "HgN/A
2:20 PM66 °FBroken clouds.10 mph64%29.80 "HgN/A
1:50 PM64 °FScattered clouds.10 mph60%29.80 "HgN/A
1:20 PM64 °FBroken clouds.13 mph68%29.80 "HgN/A
12:50 PM63 °FPartly sunny.12 mph68%29.80 "HgN/A
12:20 PM63 °FPartly sunny.12 mph73%29.80 "HgN/A
11:50 AM61 °FPartly sunny.12 mph77%29.80 "HgN/A
11:20 AM61 °FPartly sunny.13 mph77%29.80 "HgN/A
10:50 AM61 °FBroken clouds.12 mph72%29.80 "HgN/A
10:20 AM61 °FBroken clouds.14 mph72%29.80 "HgN/A
9:50 AM59 °FBroken clouds.13 mph77%29.77 "HgN/A
9:20 AM61 °FScattered clouds.14 mph77%29.77 "HgN/A
8:50 AM59 °FPassing clouds.15 mph82%29.77 "HgN/A
8:20 AM57 °FPartly sunny.14 mph88%29.77 "HgN/A
7:50 AM57 °FScattered clouds.13 mph88%29.74 "HgN/A
7:20 AM55 °FPassing clouds.9 mph94%29.74 "HgN/A
6:50 AM57 °FPassing clouds.8 mph88%29.74 "HgN/A
6:20 AM55 °FPassing clouds.7 mph94%29.74 "HgN/A
5:50 AM55 °FPartly cloudy.6 mph94%29.74 "HgN/A
5:20 AM57 °FLight rain. Partly cloudy.8 mph88%29.74 "HgN/A
4:50 AM57 °FPassing clouds.6 mph88%29.71 "HgN/A
4:20 AM55 °FPassing clouds.6 mph88%29.71 "HgN/A
3:50 AM57 °FPassing clouds.8 mph88%29.71 "HgN/A
3:20 AM57 °FClear.8 mph88%29.71 "Hg10 mi
2:50 AM57 °FClear.7 mph88%29.71 "Hg10 mi
2:20 AM57 °FPartly cloudy.8 mph88%29.71 "HgN/A
1:50 AM57 °FPassing clouds.8 mph94%29.71 "HgN/A
1:20 AM57 °FPassing clouds.8 mph94%29.68 "HgN/A
Weather by CustomWeather, © 2015

See weather overviewHow to use our weather pages